METLOCID,DATE_TIME,AVG_SOILT0CM,STDDEV_SOILT0CM,MIN_SOILT0CM,MAX_SOILT0CM,N_SOILT0CM,AVG_SOILT5CM,STDDEV_SOILT5CM,MIN_SOILT5CM,MAX_SOILT5CM,N_SOILT5CM,AVG_SOILT10CM,STDDEV_SOILT10CM,MIN_SOILT10CM,MAX_SOILT10CM,N_SOILT10CM
BOYM,11/1/94,-3.455842185,4.432155679,-12.19,11.41,1318,-2.605007587,2.913535864,-8.55,5.16,1318,-3.498406677,1.600680534,-7.02,0.95,1318
BOYM,12/1/94,2.906836918,4.710483757,-9.06,15.35,2232,3.608391577,3.422326485,-5.81,11.73,2232,2.449094982,2.451988168,-4.57,7.29,2232
BOYM,1/1/95,3.272261104,5.097229746,-6.6,15.54,2229,4.350103185,3.418697367,-3.31,12.48,2229,3.557685061,2.021881185,-1.58,8.28,2229
BOYM,2/1/95,-3.709578373,5.521307481,-16.19,8.3,2016,-2.837202381,4.223101528,-12.03,7.23,2016,-2.908462302,3.230160705,-9.15,4.35,2016
BOYM,3/1/95,-22.13124104,7.995216086,-35.87,-6.18,2232,-20.78957885,7.248937059,-32.93,-7.55,2232,-19.45797043,6.560626101,-29.94,-8.73,2232
BOYM,4/1/95,-29.17556481,7.444357675,-39.88,-9.01,2160,-27.98525926,5.552926416,-36.52,-12.8,2160,-26.86414815,4.3027772,-33.65,-15.54,2160
BOYM,5/1/95,-29.32817204,7.920075003,-43.03,-12.9,2232,-28.34416219,5.826752551,-38.43,-17.54,2232,-27.38818996,4.260585882,-34.95,-19.92,2232
BOYM,6/1/95,-26.59701389,9.541690114,-44.89,-6.67,2160,-26.74390278,7.064199501,-40.62,-11.93,2160,-26.61774537,5.297798214,-37.62,-15.59,2160
BOYM,7/1/95,-29.71900962,7.259504843,-43.39,-9.41,2080,-28.98247115,5.48029991,-39.59,-12.5,2080,-27.98792788,4.360074829,-36.49,-15.43,2080
BOYM,11/1/95,0.598544928,5.825301464,-11.84,14.63,1725,-0.064156522,4.481418901,-10.7,10.79,1725,-2.096015081,3.412154211,-10.64,4.92,1724
BOYM,12/1/95,6.091982527,5.020354171,-6.9,20.3,2976,5.694512769,3.318297847,-3.66,14.31,2976,3.986633065,2.002862159,-1.8,8.89,2976
BOYM,1/1/96,4.489593004,5.037904034,-5.09,22.59,2973,4.549162462,3.182134623,-2.29,14.52,2973,3.407544568,1.510967206,-0.33,8.3,2973
BOYM,2/1/96,-2.841109914,7.770183239,-19.3,16.04,2784,-2.068850575,6.237197663,-15.24,11.21,2784,-2.179102011,4.883688513,-11.93,6.57,2784
BOYM,3/1/96,-16.43344758,6.754487858,-32.77,2.5,2976,-15.6375504,5.17920739,-28.96,-1.58,2976,-14.83278562,3.904996971,-25.16,-5.98,2976
BOYM,4/1/96,-20.11008333,8.254586532,-33.9,-4.99,2880,-19.437,6.658285718,-30.68,-7.4,2880,-18.60821181,5.086428636,-27.37,-9.46,2880
BOYM,5/1/96,-30.26535954,7.598622206,-43.25,-11.31,2976,-28.90341398,6.016838728,-39.13,-14.01,2976,-27.34491599,4.538275872,-34.78,-17.13,2976
BOYM,6/1/96,-29.1860625,8.371634428,-43.46,-9.77,2880,-28.63172917,6.311399116,-40.09,-14.19,2880,-27.86393056,4.447324852,-36.23,-17.97,2880
BOYM,7/1/96,-29.02801747,8.593979133,-44.23,-10.72,2976,-28.24707997,6.584674065,-40.73,-14.37,2976,-27.12363239,4.82620056,-36.98,-17.86,2976
BOYM,8/1/96,-23.68225806,9.302543587,-37.18,-3.54,2976,-23.96275202,7.474748293,-34.93,-8.31,2976,-24.23502688,5.564298961,-32.34,-13.58,2976
BOYM,9/1/96,-29.99835764,6.933449204,-40.86,-14.1,2880,-29.08165625,5.667060997,-38.1,-15.03,2880,-27.95314236,4.494490969,-35.12,-15.65,2880
BOYM,10/1/96,-17.59928763,6.976651815,-37.34,-0.46,2976,-17.80346438,5.531877757,-34.14,-3.39,2976,-18.7237668,4.116525559,-30.97,-9.27,2976
BOYM,11/1/96,-2.383196664,6.679957119,-21.09,10.77,2878,-2.253992356,5.939486069,-18.58,8.33,2878,-4.310934677,4.677609851,-15.86,2.66,2878
BOYM,12/1/96,5.25797043,5.064147234,-3.85,20,2976,5.503602151,3.809750339,-1.44,15.15,2976,3.547620968,2.027769148,-1.29,8.69,2976
BOYM,1/1/97,3.561528898,5.170658965,-5.93,18.34,2976,4.295070565,3.912009528,-3.11,15.27,2976,3.04140121,2.212680693,-1.57,8.9,2976
BOYM,2/1/97,-6.050631342,6.905069973,-20.91,10.17,2661,-4.80957159,5.780098794,-17.22,8.48,2661,-4.727579857,4.360987705,-13.41,3.77,2661
BOYM,3/1/97,-23.06262433,6.726674407,-36.72,-2.96,2976,-21.85639785,5.909476997,-33.38,-6.53,2976,-20.20929772,5.164311281,-28.94,-10.08,2976
BOYM,4/1/97,-29.95436032,8.259211279,-44.14,-9.15,2853,-28.75203645,7.068664442,-40.85,-12.34,2853,-26.96198738,5.785056887,-36.57,-15.22,2853
BOYM,5/1/97,-25.38184476,9.997893771,-45.72,-8.19,2976,-25.41809476,8.051439132,-42.38,-11.79,2976,-25.13943884,5.99529777,-38.22,-15.33,2976
BOYM,6/1/97,-24.09550694,8.639902142,-42.04,-9.28,2880,-23.66977778,6.708747584,-38.03,-12.36,2880,-22.93368403,4.801333662,-33.67,-15.26,2880
BOYM,7/1/97,-34.45559023,9.897180098,-49.38,-14.62,2948,-33.48170285,7.826734596,-46.4,-17.56,2948,-31.6959464,5.923559424,-42.25,-19.94,2948
BOYM,8/1/97,-34.865,9.850776684,-49.06,-14.76,2976,-34.16322245,8.095520446,-46,-18.54,2976,-32.7881082,6.139613106,-41.7,-21.18,2976
BOYM,9/1/97,-26.65636806,10.03135349,-46.73,-3.33,2880,-27.14194444,8.362856409,-44.22,-8.46,2880,-27.48902431,6.412500859,-40.69,-13.28,2880
BOYM,10/1/97,-11.83087702,6.010791081,-29.52,2.1,2976,-12.5083871,4.795039035,-27.66,-1.79,2976,-13.99600134,3.451484738,-25.07,-7.65,2976
BOYM,11/1/97,0.411405651,6.556730018,-21.47,14.63,2867,-0.246571329,5.610939295,-18.3,11.11,2867,-2.588119075,4.771541493,-14.99,5.14,2637
BOYM,12/1/97,3.017718414,5.514793959,-7.72,18.21,2976,1.750682124,2.937810613,-4.33,8.62,2976,,,,,0
BOYM,1/1/98,2.508696262,5.509531512,-7.59,21.46,2140,2.754228972,3.836718726,-5.58,12.66,2140,1.629140527,2.50487882,-3.4,6.79,1594
BOYM,2/1/98,-3.569095982,5.29464413,-16.18,11.39,2688,-3.101755952,4.532699681,-14.03,7.81,2688,-3.343113839,3.333600123,-10.95,2.08,2688
BOYM,3/1/98,-19.96099798,5.653731384,-35.29,-8.13,2976,-19.32791331,4.94288674,-33.09,-9.34,2976,-18.03239247,4.112842603,-28.93,-8.79,2976
BOYM,4/1/98,-31.27684028,8.547666524,-46.04,-9.64,2880,-30.26688194,7.070848878,-43,-13.7,2880,-28.44534028,5.432660997,-38.64,-17.43,2880
BOYM,5/1/98,-26.86783266,9.202285093,-42.28,-6.04,2976,-27.01926747,7.051362002,-39.11,-11.23,2976,-26.11490927,4.735104332,-34.39,-16,2976
BOYM,6/1/98,-20.49080903,7.252436728,-34.7,-7.76,2880,-21.18295139,5.679645165,-32.47,-11.61,2880,-21.08461111,4.162501192,-29.57,-14.85,2880
BOYM,7/1/98,-17.89965517,4.623819696,-28.91,-10.72,725,-19.43412414,3.194061602,-26.9,-14.24,725,-20.15466207,2.303370171,-26.16,-16.34,725
BOYM,11/1/98,-2.412789651,5.105702538,-13.49,7.77,1778,-2.070584927,4.073163112,-11.4,6.53,1778,-3.956569179,2.339876682,-9.33,0.83,1778
BOYM,12/1/98,3.20874664,4.865634056,-7.4,16.65,2976,4.023387097,3.948302938,-5.23,14.53,2976,2.145547715,2.323658019,-3.92,7.98,2976
BOYM,1/1/99,3.670181452,4.321028336,-5.43,16.07,2976,4.526071909,3.392722869,-3.32,14.16,2976,3.135829973,1.623411094,-0.96,7.23,2976
BOYM,2/1/99,-4.272306548,6.955601275,-19.86,10.24,2688,-3.298322173,6.087613056,-16.97,8.04,2688,-3.287209821,4.606073702,-13.7,3.56,2688
BOYM,3/1/99,-22.41918683,7.788160388,-36.41,-5.73,2976,-21.49806116,6.560960903,-33.11,-8.95,2976,-19.71072245,5.381377636,-29.58,-10.87,2976
BOYM,4/1/99,-31.36039931,8.739270598,-44.14,-8.66,2880,-30.35782986,7.346392832,-41.6,-11.7,2880,-28.55299653,5.614612548,-37.4,-14.82,2880
BOYM,5/1/99,-33.63923723,8.657285055,-48.21,-10.76,2976,-33.09318884,6.82655864,-45.42,-15.15,2976,-31.56595766,4.436821516,-40.59,-19.66,2976
BOYM,6/1/99,-25.74523264,8.387582534,-41.47,-6.91,2880,-25.89319792,6.651474736,-38.6,-10.53,2880,-25.34418056,4.708137253,-34.69,-14.45,2880
BOYM,7/1/99,-23.88493616,9.624567999,-40.82,-7.66,2976,-24.2000504,7.942600829,-38.72,-10.45,2976,-23.76378024,5.761019365,-34.82,-13.28,2976
BOYM,8/1/99,-35.6727957,10.07545684,-48,-13.41,2976,-34.69577621,8.169116661,-45.08,-17.22,2976,-32.68721438,6.133538658,-41.19,-20.29,2976
BOYM,9/1/99,-24.60671528,8.565859164,-46.11,-5.38,2880,-25.53213542,7.173083598,-44.41,-10.33,2880,-26.17326736,5.768205573,-41.14,-15.19,2880
BOYM,10/1/99,-14.12490255,7.200887601,-30.91,3.93,2976,-15.10597446,5.893925401,-28.57,-2.75,2976,-16.3874664,4.581380948,-25.71,-9.4,2976
BOYM,11/1/99,-1.018527778,5.925376366,-15.36,15.79,2880,-1.958913194,4.61603953,-13.97,9.89,2880,-4.133041667,3.346390016,-12.97,2.16,2880
BOYM,12/1/99,4.876478305,5.370774693,-5.2,17.78,2973,4.189320552,3.734304292,-3.57,13.7,2973,2.114110326,1.889544795,-2.98,6.78,2973
BOYM,1/1/00,4.299002016,5.752165936,-7.93,20.94,2976,3.994969758,3.940195286,-5.25,13.73,2976,2.565625,1.859070667,-2.54,6.86,2976
BOYM,2/1/00,-3.868002874,6.381828393,-16.39,14.68,2784,-3.84878592,5.086123064,-13.12,10.48,2784,-4.063365661,3.726279409,-10.04,4.76,2784
BOYM,3/1/00,-18.19664315,7.426798547,-35.22,1.95,2976,-17.71575269,6.181133945,-32.37,-3.69,2976,-16.60326277,4.950783882,-28.25,-7.04,2976
BOYM,4/1/00,-23.75500175,9.148810632,-39.08,-3.92,2861,-23.13156938,8.056628419,-36.4,-6.74,2861,-21.85050682,6.467987792,-32.16,-10.15,2861
BOYM,5/1/00,-29.61563172,8.965424352,-43.99,-9.83,2976,-28.62893481,7.391636053,-41.18,-12.53,2976,-26.93854503,5.526677687,-37.37,-15.79,2976
BOYM,6/1/00,-33.33394444,11.30975592,-46.5,-7.07,2880,-32.69317708,9.606561058,-43.93,-10.32,2880,-31.10245486,7.491820594,-40.05,-13.83,2880
BOYM,7/1/00,-24.94619624,8.712327076,-46.32,-9.06,2976,-25.19137433,7.270733203,-43.93,-13.13,2976,-24.98881384,5.439545746,-40.05,-17.04,2976
BOYM,8/1/00,-28.61813508,10.19806625,-45.36,-8.95,2976,-28.61767473,8.610696188,-43.08,-12.18,2976,-28.10550067,6.432717195,-39.82,-15.67,2976
BOYM,9/1/00,-26.74976042,10.59220648,-43.99,-7.96,2880,-26.892625,8.734118945,-41.45,-11.79,2880,-26.63859375,6.178290764,-37.32,-16.99,2880
BOYM,10/1/00,-18.85284706,6.194579507,-31.37,-2.32,2550,-19.33675686,4.242261664,-28.63,-7.03,2550,-19.83864314,2.175578665,-25.12,-13.06,2550
BOYM,11/1/00,1.926003086,5.240351199,-8.82,17.34,1296,1.062368827,3.861247026,-6.8,12.44,1296,-1.437669753,2.204393255,-5.23,4.5,1296
BOYM,12/1/00,4.863874328,5.716013661,-4.46,21.1,2976,4.496337366,3.972577001,-2.19,15.7,2976,2.562775538,1.863295217,-1.29,7.26,2976
BOYM,1/1/01,2.938010753,5.620315839,-7.42,16.16,2976,2.880645161,4.053241191,-5.08,12.61,2976,1.545349462,1.925120905,-3.32,5.66,2976
BOYM,2/1/01,-2.439430804,5.848229618,-16.42,12.82,2688,-2.35593378,4.420629467,-13.48,8.62,2688,-2.732745536,2.841275558,-9.74,3.2,2688
BOYM,3/1/01,-21.13375336,6.894005126,-32.48,-2.34,2976,-20.37775202,5.790445972,-29.9,-5.58,2976,-18.84753696,4.747339913,-26.46,-7.95,2976
BOYM,4/1/01,-24.64692014,7.328943473,-38.79,-7.23,2880,-24.16157639,5.894797167,-36.16,-10.63,2880,-23.05516667,4.154009321,-31.72,-14.53,2880
BOYM,5/1/01,-25.47234879,9.605524368,-42.39,-6.6,2976,-25.19363575,7.894405288,-39.64,-9.81,2976,-24.02500672,5.793755653,-34.95,-12.82,2976
BOYM,6/1/01,-24.50535069,7.965563257,-39.21,-6.49,2880,-24.84990278,6.433468945,-36.44,-11.02,2880,-24.38159722,4.754776792,-33.44,-15.45,2880
BOYM,7/1/01,-28.26698925,8.042629513,-43.16,-9.41,2976,-28.40207997,6.253038646,-40.18,-14.65,2976,-27.38479839,4.369617935,-35.22,-17.29,2976
BOYM,8/1/01,-38.94179772,5.755210394,-48.8,-21.08,2976,-38.15925739,4.507646458,-46.29,-26.52,2976,-36.19495632,3.097104139,-42.01,-29.02,2976
BOYM,9/1/01,-29.42484722,9.127367345,-43.57,-7.54,2880,-29.81819444,7.296982238,-41.73,-13.22,2880,-29.80569792,5.225732141,-38.77,-19.36,2880
BOYM,10/1/01,-16.24824261,7.432896449,-35.79,-3.37,2976,-16.74887769,6.141178505,-33.14,-5.4,2976,-17.94344086,4.33224881,-29.37,-10.64,2976
BOYM,11/1/01,-2.501534722,6.142769243,-18.88,11.78,2880,-2.694486111,5.355799564,-16.85,9.5,2880,-4.97803125,3.917654395,-14.94,2.65,2880
BOYM,12/1/01,5.802006048,5.634432956,-5.78,18.58,2976,5.892926747,4.636695897,-3.49,17.09,2976,3.556276882,2.869590909,-1.8,10.23,2976
BOYM,1/1/02,4.959270588,4.92673183,-5.98,18.39,2975,5.670319328,4.189178256,-3.4,15.67,2975,4.16210084,2.54300676,-1.09,9.31,2975
BOYM,2/1/02,-3.286700149,6.180553131,-17.11,14.48,2688,-2.493530506,5.378969793,-14.01,12.01,2688,-2.750896577,3.867083257,-10.67,5.52,2688
BOYM,3/1/02,-16.1758871,5.602151575,-28.57,-1.33,2976,-15.73083669,4.7085483,-25.65,-3.58,2976,-14.6599832,3.585362131,-21.98,-6.87,2976
BOYM,4/1/02,-27.29314931,8.103175158,-37.93,-8.99,2880,-26.91433681,6.646161878,-35.8,-12.07,2880,-25.45361458,4.817032681,-31.98,-14.56,2880
BOYM,5/1/02,-22.5324664,8.479466376,-38.88,-6.32,2976,-22.29816532,7.338434312,-36.54,-8.94,2976,-21.36104839,5.815007057,-32.73,-11.53,2976
BOYM,6/1/02,-33.48322222,8.358943913,-46.58,-10.85,2880,-32.8205625,6.718328755,-43.92,-15.03,2880,-31.15278472,4.699768763,-39.21,-19.44,2880
BOYM,7/1/02,-34.87219422,8.587860358,-45.72,-15.23,2976,-34.39128024,6.828346573,-43.41,-19.39,2976,-32.9774328,4.817090073,-39.87,-23.03,2976
BOYM,8/1/02,-35.13055108,7.599770162,-46.66,-13.15,2976,-34.84665659,6.220239408,-44.62,-17.12,2976,-33.86639449,4.336422427,-40.93,-22.48,2976
BOYM,9/1/02,-27.359375,7.176967513,-37.87,-8.11,2880,-27.37969792,5.933891685,-35.72,-11.71,2880,-27.10259375,4.512976348,-33.58,-15.94,2880
BOYM,10/1/02,-18.21193884,7.029658354,-33.52,-2.31,2976,-18.61225806,6.376515168,-32.45,-4.69,2976,-19.96979503,5.171090575,-30.82,-10.23,2976
BOYM,11/1/02,-5.376083333,4.401563334,-15.12,5.86,2880,-5.422961806,3.799509522,-13.76,3.1,2880,-7.310555556,2.275994476,-13.35,-2.65,2880
BOYM,12/1/02,2.609653898,4.770677423,-9.66,12.94,2976,2.85796707,3.972193196,-7.74,11.9,2976,0.675823253,2.438052783,-6.51,5.65,2976
BOYM,1/1/03,4.998257206,4.623286179,-5.57,18.63,2255,5.386266075,3.771673926,-3.19,15.29,2255,3.588855368,1.910339383,-0.92,7.76,2254
BOYM,1/1/04,2.196288515,5.413209813,-7.83,12.17,714,2.644957983,4.092355451,-5.25,10.71,714,1.37452381,1.836521381,-2.61,5.13,714
BOYM,2/1/04,-4.502435345,6.153077256,-17.59,11.89,2784,-3.805991379,5.130308161,-14.23,8.53,2784,-3.863081897,3.496195199,-11.51,3.42,2784
BOYM,3/1/04,-23.76764785,5.907715415,-35.07,-7.22,2976,-22.13129704,4.828402746,-31.89,-11.2,2976,-19.77109879,4.106475858,-27.05,-10.35,2976
BOYM,4/1/04,-27.09055903,7.343254359,-40.38,-12.32,2880,-26.35719792,5.956960969,-37.39,-13.97,2880,-24.77363542,4.026789961,-32.33,-16.39,2880
BOYM,5/1/04,-31.69037634,9.825391273,-44.59,-6.67,2976,-30.66935484,7.989364699,-41.52,-10.62,2976,-28.38146169,5.533460763,-36.56,-14.63,2976
BOYM,6/1/04,-26.40242014,9.085491127,-43.32,-9.71,2880,-26.27655208,7.570477129,-41.09,-12.41,2880,-25.55105208,5.491656,-36.56,-15.82,2880
BOYM,7/1/04,-37.70954973,8.125851425,-48.62,-16.28,2976,-36.6740121,6.4951755,-45.6,-20.28,2976,-34.08490591,4.090087331,-40.01,-24.79,2976
BOYM,8/1/04,-30.50657594,8.263473663,-45.8,-11.15,2976,-30.42323589,6.598745777,-42.89,-15.58,2976,-29.68981855,4.183412467,-38.22,-21.14,2976
BOYM,9/1/04,-28.67582639,5.320765537,-39,-16.04,2880,-28.45168056,3.986462437,-36.82,-19.08,2880,-27.80005556,2.226492123,-32.76,-22.01,2880
BOYM,10/1/04,-16.7187164,9.232738077,-40.55,-1.87,2976,-17.54563172,7.838216248,-37.85,-5.53,2976,-18.92835685,6.097548119,-33.3,-11.02,2976
BOYM,11/1/04,-0.774628472,6.692898514,-16.08,16.22,2880,-2.046597222,5.572392496,-14.58,10.38,2880,-4.751864583,4.378930731,-14.28,2.51,2880
BOYM,12/1/04,6.027120296,4.979234257,-4.36,20.15,2976,5.026777554,3.511084479,-2.48,15.32,2976,2.565816532,1.725344269,-1.48,7.34,2976
BOYM,1/1/05,5.553793683,5.251680479,-8.29,22.07,2976,5.058887769,3.855663712,-5.5,15.87,2976,3.372483199,2.004250756,-2.5,7.95,2976
BOYM,2/1/05,-3.266480655,7.041932476,-18.93,15.23,2688,-3.028921131,5.630988971,-15.62,10.33,2688,-3.149229911,3.951412429,-11.63,4.53,2688
BOYM,3/1/05,-20.21286962,6.158767974,-31.47,-0.34,2976,-19.12812164,5.129200196,-28.4,-4.95,2976,-17.26596774,4.129845266,-23.99,-8.3,2976
BOYM,4/1/05,-29.20548958,6.985975886,-41.62,-13.93,2880,-27.78065972,5.893216255,-38.18,-15.48,2880,-25.46347569,4.537859608,-33,-16.54,2880
BOYM,5/1/05,-24.71301075,7.401654633,-39.34,-10,2976,-24.46960013,5.811423182,-35.69,-12.63,2976,-23.77750336,3.949070698,-31.01,-15.69,2976
BOYM,6/1/05,-29.63841667,8.277831688,-44.3,-8.74,2880,-28.92960069,6.427317498,-40.85,-11.85,2880,-27.52172569,3.826589399,-34.88,-16.85,2880
BOYM,7/1/05,-31.72869624,10.11227334,-45.69,-7.29,2976,-30.95268145,8.539315959,-43.25,-10.22,2976,-29.2459879,5.994565345,-38.21,-14.49,2976
BOYM,8/1/05,-30.74915659,7.918456012,-44.01,-12.42,2976,-29.92080309,6.197614097,-40.79,-16.02,2976,-28.41825605,3.693182729,-35.09,-20.31,2976
BOYM,9/1/05,-27.40963889,10.32910391,-44.45,-3.72,2880,-27.54027431,8.351272509,-41.32,-8.35,2880,-27.16327778,5.632932098,-35.49,-14.07,2880
BOYM,10/1/05,-13.64271841,7.748125839,-29.7,4.36,2976,-14.63524194,6.412433857,-27.43,-0.28,2976,-16.32026546,4.883220947,-24.64,-6.37,2976
BOYM,11/1/05,-1.856118056,5.916192661,-15.54,12.02,2880,-2.860072917,4.432171121,-13.58,8.08,2880,-5.141503472,2.819593443,-11.79,1.5,2880
BOYM,12/1/05,6.453461022,5.431246583,-6.1,20.85,2976,5.335655242,3.923622812,-4.31,15.46,2976,2.664274194,2.278837123,-3.85,7.82,2976
BOYM,1/1/06,5.045722446,5.209116451,-4.43,17.61,2976,4.554747984,3.615448534,-2.21,13.41,2976,2.995426747,1.859254378,-0.7,7.39,2976
BOYM,2/1/06,-2.5153125,5.692638994,-17.1,10.79,2688,-2.244084821,4.133311739,-14.05,7.73,2688,-2.311774554,2.577066807,-10.16,3.52,2688
BOYM,3/1/06,-18.23020161,5.941591884,-30.99,-2.77,2976,-16.82564852,5.076373236,-27.35,-6.38,2976,-15.11216398,4.405234627,-23.55,-8,2976
BOYM,4/1/06,-31.51554167,6.491006854,-43.86,-14.92,2880,-29.52220833,4.859076315,-39.29,-19.29,2880,-27.29681597,3.455007506,-33.92,-20.42,2880
BOYM,5/1/06,-32.24802419,9.781356593,-44.79,-7.88,2976,-30.77025874,7.464176156,-40.46,-11.43,2976,-28.96749664,5.168334701,-35.73,-15.04,2976
BOYM,6/1/06,-26.2086875,9.984130615,-44.18,-10.46,2880,-25.33482292,7.632310291,-39.29,-13.65,2880,-24.62874306,5.331806833,-33.98,-16.21,2880
BOYM,7/1/06,-37.07441868,7.547908457,-46.33,-17.61,2976,-35.0077957,5.123570897,-41.65,-21.24,2976,-32.75224462,2.996708974,-37.07,-23.84,2976
BOYM,8/1/06,-23.395625,7.150682361,-37.23,-10.61,2976,-23.6103125,5.318574776,-33.48,-13.76,2976,-23.97261089,3.553233954,-30.66,-17.24,2976
BOYM,9/1/06,-24.93652083,8.115783017,-39.48,-8.48,2880,-24.78713542,6.334600422,-34.77,-11.43,2880,-24.77629861,4.695485144,-31.78,-14.78,2880
BOYM,10/1/06,-17.83760753,6.792391417,-33.01,-0.6,2976,-18.38978495,5.158686552,-30.68,-5.07,2976,-19.32118616,3.539033268,-28.01,-10.33,2976
BOYM,11/1/06,-2.920597222,7.658640775,-20.09,16.7,2880,-4.373923611,6.299173966,-17.99,10.17,2880,-6.858111111,4.933784022,-16.2,3.54,2880
BOYM,12/1/06,4.111239919,5.441058409,-6.07,18.01,2976,3.022825941,3.675531345,-4.46,11.96,2976,0.935920699,1.877763937,-3.52,5.44,2976
BOYM,1/1/07,7.18668637,5.49214962,-4.16,21.4,2876,6.246248261,3.632603791,-1.37,17.96,2876,4.483442281,2.397542896,-0.29,19.6,2876
BOYM,2/1/07,-4.196383929,7.420535289,-19.69,14.53,2688,-3.708084077,5.821114597,-16.37,10.27,2688,-3.71452381,5.416410748,-15.52,8.88,2688
BOYM,3/1/07,-18.08183132,4.513494341,-27.42,-1.61,2976,-18.07897177,4.782353433,-28.84,-3.71,2976,-18.6662668,3.896643116,-27.37,-10.19,2976
BOYM,4/1/07,-27.85161111,6.665298733,-38.49,-11.35,2880,-27.99567361,6.623533666,-39.12,-12.4,2880,-27.92139236,5.434218897,-37.43,-14.91,2880
BOYM,5/1/07,-24.64662298,10.09380625,-41.96,-6.84,2976,-24.1146875,8.874124302,-39.72,-8.48,2976,-24.19390121,7.73454762,-38.23,-10.96,2976
BOYM,6/1/07,-24.69083333,8.527227169,-43.09,-6.94,2880,-24.06546528,7.405256757,-40.79,-8.79,2880,-23.85137847,6.582836272,-39.13,-10.29,2880
BOYM,7/1/07,-26.84896505,8.963347458,-44.99,-8.82,2976,-26.45899866,7.659566598,-42.47,-10.78,2976,-26.42804772,6.695773255,-40.64,-12.31,2976
BOYM,8/1/07,-26.75757728,8.029177243,-41.97,-6.24,2976,-26.32991263,6.870267789,-39.78,-9.22,2976,-26.22171371,6.106265482,-38.5,-11.4,2976
BOYM,9/1/07,-23.11373958,6.598034184,-39.14,-9.39,2880,-23.02172222,5.556630855,-36.81,-10.97,2880,-23.21605556,4.977710687,-35.66,-12.77,2880
BOYM,10/1/07,-16.74369257,5.91767257,-34.86,1.29,2960,-16.99138176,4.477962065,-32.2,-6.02,2960,-17.18151689,4.041161856,-30.9,-8.08,2960
BOYM,11/1/07,2.846350093,5.735244735,-6.98,17.52,537,2.13556797,3.733589778,-5.52,10.36,537,1.387839851,3.25796518,-5.01,8.24,537
BOYM,12/1/07,7.021587088,7.033480911,-7.16,25.46,2974,6.483372562,4.972397645,-5.45,18.15,2974,5.631667787,4.382516457,-4.52,15.21,2974
BOYM,1/1/08,6.437143817,6.13053794,-6.08,22.39,2976,6.175551075,4.226907807,-4.21,17.62,2976,5.823202285,3.849075217,-3.07,17.04,2976
BOYM,2/1/08,-4.271109914,5.809762073,-15.43,14.77,2784,-4.087104885,4.534463243,-13.28,9.6,2784,-4.193157328,4.086074383,-12.08,7.24,2784
BOYM,3/1/08,-18.54648522,7.876310898,-32.35,1.3,2976,-17.57605847,7.439685099,-30.94,-3.92,2976,-17.43123656,7.028740003,-29.93,-5.65,2976
BOYM,4/1/08,-24.15355208,6.593112275,-35.06,-8.18,2880,-23.90502431,6.000421972,-34.08,-9.48,2880,-23.80425694,5.487112895,-33.23,-10.59,2880
BOYM,5/1/08,-28.95092742,7.547282493,-42.51,-10.05,2976,-28.27989583,6.653088989,-39.72,-11.14,2976,-28.08726142,6.330334221,-39.36,-12.38,2976
BOYM,6/1/08,-19.99196181,7.022119644,-35.74,-6.23,2880,-20.01887847,6.105443926,-33.9,-7.89,2880,-20.13918403,5.726324725,-33.43,-8.72,2880
BOYM,7/1/08,-32.81692876,8.941143888,-44.51,-13.28,2976,-31.92647177,7.208420178,-41.56,-16.65,2976,-31.80295699,6.693295629,-41.05,-18.62,2976
BOYM,8/1/08,-37.25726815,7.575811967,-50.87,-16.02,2976,-36.20720094,6.120723299,-48.09,-19.7,2976,-35.79080645,5.587191139,-47.01,-21.36,2976
BOYM,9/1/08,-19.79391667,6.568929021,-39.26,-8.89,2880,-20.21361806,5.736007621,-37.21,-11.53,2880,-20.555125,5.350642638,-36.25,-12.78,2880
BOYM,10/1/08,-14.37445228,7.369118422,-31.13,3.95,2976,-14.65584005,5.787990914,-28.4,-1.18,2976,-15.1147211,5.250893192,-27.47,-2.79,2976
BOYM,11/1/08,-2.537204861,7.787070161,-19.8,15.71,2880,-2.965368056,5.353205355,-17.12,8.86,2880,-3.735402778,4.657453771,-16.18,6.63,2880
BOYM,12/1/08,7.665977823,7.91146104,-7.51,25.68,2976,7.249035618,5.084407356,-4.51,17.77,2976,6.131663306,4.292106026,-3.68,15.39,2976
BOYM,1/1/09,5.981740591,6.706313017,-5.46,23.59,2976,6.010709005,4.463050123,-2.99,17.06,2976,5.252876344,3.610759792,-1.92,14.66,2976
BOYM,2/1/09,-6.256774554,8.648937871,-22.15,18.46,2688,-5.233664435,7.36325947,-20.6,12.62,2688,-5.188497024,6.649656332,-19.34,9.86,2688
BOYM,3/1/09,-22.83921371,6.627457932,-34.94,-3.96,2976,-21.83461694,6.428719672,-32.98,-2.88,2976,-21.55095766,6.026557376,-32.2,-4.56,2976
BOYM,4/1/09,-21.43874306,6.358471602,-36.55,-10.39,2880,-21.25104167,5.300763826,-33.63,-11.96,2880,-21.21317014,4.739298468,-32.83,-12.96,2880
BOYM,5/1/09,-28.60874664,8.11279826,-40.13,-9.29,2976,-28.29494624,6.596741956,-38.36,-16.3,2976,-28.0728461,6.838140992,-38.48,-14.24,2976
BOYM,6/1/09,-27.68998958,9.550081103,-46.96,-10.14,2880,-27.50143403,7.237840611,-42.97,-12.73,2880,-27.26649306,7.032818971,-42.55,-14.14,2880
BOYM,7/1/09,-27.15276546,8.915251186,-41.86,-7.06,2976,-26.49269489,7.37881186,-38.37,-9.25,2976,-26.23111559,6.705072323,-37.25,-10.74,2976
BOYM,8/1/09,-31.34217742,6.261086251,-44.01,-19.27,2976,-30.90502352,5.993404521,-41.42,-17.99,2976,-30.59796371,5.400443171,-40.16,-18.8,2976
BOYM,9/1/09,-27.62370139,9.0138521,-44.94,-6.77,2880,-27.35920139,7.65032182,-43.77,-11.09,2880,-27.44466667,6.957855788,-42.44,-13.11,2880
BOYM,10/1/09,-16.49983871,7.447194144,-31.79,2.25,2976,-16.8634207,5.668180185,-29.6,-4.03,2976,-17.23954301,5.116443361,-28.51,-5.29,2976
BOYM,11/1/09,0.209854167,7.644154126,-16.59,17.52,2880,-0.138996528,6.13660246,-13.72,13.13,2880,-1.001597222,5.596644055,-13.24,11.26,2880
BOYM,12/1/09,7.376413445,6.552650568,-4.3,23.15,2975,7.047290756,4.464667724,-2.48,16.78,2975,6.15972437,3.732071609,-1.53,14.45,2975
BOYM,1/1/10,6.375043683,6.495127218,-6.06,21.64,2976,6.310887097,4.320916836,-3.57,16.77,2976,5.554075941,3.575146556,-2.6,14.18,2976
BOYM,2/1/10,-2.979263393,7.504867477,-18.43,19.13,2688,-2.894769345,5.903370564,-15.67,11.82,2688,-3.05843378,5.424076229,-14.32,9.7,2688
BOYM,3/1/10,-17.25603831,8.512490737,-32.74,3.83,2976,-17.0581922,8.404657054,-34.15,-0.99,2976,-16.9735047,7.992702078,-33.79,-2.68,2976
BOYM,4/1/10,-25.79937153,4.688528727,-35.54,-16.61,2880,-25.35480208,5.39142107,-35.39,-13.96,2880,-25.15650347,4.944994104,-34.63,-14.86,2880